�������l�o���
Date,Time,MP-1(��Sv/h),MP-2(��Sv/h),MP-3(��Sv/h),MP-4(��Sv/h),MP-5(��Sv/h),MP-6(��Sv/h),MP-7(��Sv/h),MP-8(��Sv/h),����,����(m/s),���J
2016/06/24,00:00,1.247,-,2.118,2.137,1.851,0.624,1.163,1.016,�k�k��,7.1,��
2016/06/24,00:10,1.247,-,2.118,2.136,1.849,0.624,1.161,1.017,�k�k��,7.5,��
2016/06/24,00:20,1.247,-,2.117,2.141,1.851,0.622,1.164,1.016,�k�k��,7.3,��
2016/06/24,00:30,1.247,-,2.117,2.139,1.851,0.623,1.164,1.016,�k�k��,6.4,��
2016/06/24,00:40,1.248,-,2.120,2.139,1.855,0.622,1.164,1.015,�k�k��,5.3,��
2016/06/24,00:50,1.250,-,2.116,2.143,1.855,0.624,1.162,1.015,�k�k��,4.7,��
2016/06/24,01:00,1.252,-,2.122,2.140,1.858,0.624,1.163,1.016,�k�k��,5.1,��
2016/06/24,01:10,1.253,-,2.122,2.140,1.858,0.625,1.163,1.016,�k�k��,3.9,��
2016/06/24,01:20,1.251,-,2.123,2.144,1.861,0.623,1.163,1.015,�k�k��,4.8,��
2016/06/24,01:30,1.251,-,2.121,2.142,1.856,0.623,1.166,1.016,�k�k��,4.0,��
2016/06/24,01:40,1.254,-,2.123,2.146,1.858,0.625,1.165,1.015,�k��,3.7,��
2016/06/24,01:50,1.253,-,2.127,2.146,1.859,0.624,1.165,1.017,�k��,4.4,��
2016/06/24,02:00,1.252,-,2.124,2.149,1.862,0.625,1.165,1.016,�k��,4.0,��
2016/06/24,02:10,1.253,-,2.129,2.148,1.863,0.626,1.167,1.018,�k�k��,4.0,��
2016/06/24,02:20,1.253,-,2.125,2.147,1.864,0.625,1.167,1.017,�k�k��,3.7,��
2016/06/24,02:30,1.253,-,2.122,2.145,1.865,0.625,1.168,1.018,�k�k��,3.3,��
2016/06/24,02:40,1.257,-,2.128,2.143,1.864,0.625,1.166,1.018,�k�k��,3.2,��
2016/06/24,02:50,1.256,-,2.128,2.144,1.864,0.625,1.168,1.018,�k�k��,1.5,��
2016/06/24,03:00,1.255,-,2.126,2.146,1.866,0.625,1.168,1.017,�k�k��,1.5,��
2016/06/24,03:10,1.253,-,2.129,2.147,1.866,0.625,1.167,1.018,�k�k��,1.9,��
2016/06/24,03:20,1.254,-,2.127,2.145,1.864,0.625,1.168,1.017,�k�k��,1.4,��
2016/06/24,03:30,1.255,-,2.130,2.145,1.867,0.625,1.168,1.018,�k,2.6,��
2016/06/24,03:40,1.258,-,2.130,2.148,1.866,0.626,1.168,1.019,�k�k��,2.3,��
2016/06/24,03:50,1.255,-,2.127,2.149,1.868,0.624,1.168,1.016,�k�k��,2.5,��
2016/06/24,04:00,1.258,-,2.128,2.149,1.868,0.624,1.170,1.017,�k�k��,2.3,��
2016/06/24,04:10,1.256,-,2.126,2.147,1.866,0.624,1.169,1.017,�k�k��,2.3,��
2016/06/24,04:20,1.257,-,2.128,2.150,1.869,0.626,1.169,1.018,�k,1.1,��
2016/06/24,04:30,1.254,-,2.129,2.147,1.867,0.625,1.168,1.017,�k,1.5,��
2016/06/24,04:40,1.255,-,2.130,2.147,1.868,0.626,1.170,1.018,�k,0.9,��
2016/06/24,04:50,1.256,-,2.131,2.153,1.870,0.625,1.169,1.018,�k�k��,0.9,��
2016/06/24,05:00,1.258,-,2.128,2.149,1.868,0.626,1.169,1.021,�k�k��,0.6,��
2016/06/24,05:10,1.256,-,2.129,2.151,1.865,0.626,1.169,1.018,���k��,0.6,��
2016/06/24,05:20,1.258,-,2.128,2.149,1.871,0.625,1.169,1.018,�k��,0.6,��
2016/06/24,05:30,1.256,-,2.131,2.152,1.872,0.623,1.169,1.019,-,CALM,��
2016/06/24,05:40,1.255,-,2.129,2.149,1.872,0.622,1.170,1.018,��,1.1,�L
2016/06/24,05:50,1.255,-,2.130,2.150,1.871,0.624,1.168,1.019,���k��,0.8,��
2016/06/24,06:00,1.253,-,2.128,2.148,1.873,0.623,1.168,1.016,���k��,1.2,��
2016/06/24,06:10,1.257,-,2.132,2.150,1.872,0.624,1.168,1.019,��,1.1,��
2016/06/24,06:20,1.259,-,2.130,2.151,1.871,0.626,1.169,1.020,���k��,0.9,��
2016/06/24,06:30,1.258,-,2.130,2.151,1.872,0.624,1.169,1.019,-,CALM,��
2016/06/24,06:40,1.255,-,2.129,2.150,1.873,0.623,1.169,1.019,��,0.9,��
2016/06/24,06:50,1.258,-,2.129,2.150,1.874,0.623,1.167,1.020,���쓌,0.6,��
2016/06/24,07:00,1.257,-,2.128,2.151,1.875,0.622,1.167,1.020,��,0.9,��
2016/06/24,07:10,1.257,-,2.132,2.151,1.874,0.624,1.169,1.017,��쐼,1.7,��
2016/06/24,07:20,1.257,-,2.130,2.152,1.875,0.624,1.167,1.016,��,1.5,��
2016/06/24,07:30,1.259,-,2.132,2.151,1.876,0.625,1.169,1.019,��,1.5,��
2016/06/24,07:40,1.259,-,2.135,2.154,1.876,0.624,1.169,1.016,�쓌,1.9,��
2016/06/24,07:50,1.255,-,2.134,2.156,1.879,0.624,1.170,1.018,���쓌,1.4,��
2016/06/24,08:00,1.260,-,2.134,2.151,1.878,0.623,1.170,1.016,���쓌,2.2,��
2016/06/24,08:10,1.259,-,2.134,2.152,1.878,0.624,1.169,1.019,���쓌,2.0,��
2016/06/24,08:20,1.257,-,2.135,2.155,1.879,0.626,1.168,1.018,���쓌,1.9,��
2016/06/24,08:30,1.258,-,2.133,2.156,1.880,0.624,1.169,1.019,���k��,1.2,��
2016/06/24,08:40,1.259,-,2.137,2.157,1.877,0.622,1.169,1.019,���k��,1.5,��
2016/06/24,08:50,1.259,-,2.139,2.155,1.879,0.622,1.171,1.018,�k��,1.4,��
2016/06/24,09:00,1.259,-,2.137,2.155,1.883,0.623,1.171,1.016,���k��,1.7,��
2016/06/24,09:10,1.257,-,2.138,2.157,1.880,0.623,1.172,1.017,�k�k��,1.7,��
2016/06/24,09:20,1.257,-,2.134,2.159,1.881,0.626,1.172,1.018,��,1.7,��
2016/06/24,09:30,1.258,-,2.140,2.158,1.885,0.623,1.170,1.016,���쓌,1.7,��
2016/06/24,09:40,1.257,-,2.142,2.159,1.885,0.625,1.174,1.017,���k��,1.7,��
2016/06/24,09:50,1.257,-,2.144,2.158,1.869,0.625,1.174,1.018,��,1.9,��
2016/06/24,10:00,1.259,-,2.143,2.163,1.851,0.626,1.172,1.019,��,1.9,��
2016/06/24,10:10,1.258,-,2.143,2.159,1.840,0.625,1.174,1.019,��,2.2,��
2016/06/24,10:20,1.259,-,2.144,2.159,1.862,0.626,1.175,1.018,��,2.3,��
2016/06/24,10:30,1.260,-,2.148,2.162,1.863,0.626,1.175,1.018,���k��,2.0,��
2016/06/24,10:40,1.260,-,2.149,2.163,1.861,0.629,1.174,1.018,���쓌,2.2,��
2016/06/24,10:50,1.260,-,2.150,2.160,1.863,0.626,1.175,1.019,���쓌,2.0,��
2016/06/24,11:00,1.262,-,2.149,2.163,1.864,0.627,1.174,1.019,��,2.2,��
2016/06/24,11:10,1.259,-,2.152,2.163,1.863,0.627,1.175,1.019,���쓌,2.3,��
2016/06/24,11:20,1.257,-,2.152,2.166,1.865,0.625,1.177,1.019,�쓌,3.1,��
2016/06/24,11:30,1.256,-,2.152,2.165,1.868,0.606,1.175,1.018,�쓌,1.9,��
2016/06/24,11:40,1.261,-,2.155,2.165,1.863,0.617,1.177,1.020,�쓌,1.5,��
2016/06/24,11:50,1.260,-,2.153,2.165,1.865,0.605,1.177,1.020,�쓌,1.5,��
2016/06/24,12:00,1.261,-,2.155,2.166,1.867,0.623,1.175,1.018,��쓌,2.0,��
2016/06/24,12:10,1.263,-,2.154,2.167,1.869,0.627,1.172,1.020,�쓌,2.8,��
2016/06/24,12:20,1.259,-,2.155,2.170,1.868,0.628,1.175,1.020,��쓌,3.1,��
2016/06/24,12:30,1.259,-,2.155,2.170,1.871,0.628,1.176,1.020,��쓌,3.5,��
2016/06/24,12:40,1.262,-,2.159,2.170,1.870,0.628,1.174,1.019,��쓌,2.8,��
2016/06/24,12:50,1.259,-,2.158,2.170,1.871,0.628,1.175,1.020,��쓌,3.1,��
2016/06/24,13:00,1.264,-,2.160,2.172,1.876,0.629,1.178,1.019,��쓌,3.7,��
2016/06/24,13:10,1.261,-,2.160,2.175,1.871,0.629,1.177,1.021,��쓌,3.4,��
2016/06/24,13:20,1.264,-,2.162,2.172,1.871,0.629,1.180,1.021,��쓌,4.4,��
2016/06/24,13:30,1.261,-,2.161,2.173,1.871,0.629,1.180,1.021,��,5.6,��
2016/06/24,13:40,1.264,-,2.164,2.173,1.870,0.632,1.178,1.020,��쓌,5.9,��
2016/06/24,13:50,1.264,-,2.164,2.172,1.872,0.630,1.178,1.022,��쓌,5.3,��
2016/06/24,14:00,1.263,-,2.164,2.176,1.873,0.629,1.178,1.021,��쓌,4.7,��
2016/06/24,14:10,1.265,-,2.163,2.174,1.869,0.630,1.178,1.021,��쓌,4.3,��
2016/06/24,14:20,1.265,-,2.169,2.174,1.868,0.630,1.179,1.022,��쓌,5.5,��
2016/06/24,14:30,1.265,-,2.166,2.176,1.868,0.632,1.181,1.024,��쓌,5.6,��
2016/06/24,14:40,1.265,-,2.164,2.176,1.869,0.631,1.180,1.023,��쓌,4.6,��
2016/06/24,14:50,1.264,-,2.166,2.177,1.868,0.629,1.181,1.022,��쓌,5.1,��
2016/06/24,15:00,1.264,-,2.170,2.177,1.870,0.631,1.180,1.021,��쓌,5.7,��
2016/06/24,15:10,1.267,-,2.169,2.177,1.873,0.631,1.179,1.022,��쓌,5.7,��
2016/06/24,15:20,1.266,-,2.169,2.175,1.872,0.630,1.178,1.021,��쓌,6.0,��
2016/06/24,15:30,1.268,-,2.170,2.176,1.872,0.632,1.181,1.024,��쓌,6.6,��
2016/06/24,15:40,1.266,-,2.168,2.176,1.873,0.630,1.179,1.022,��쓌,6.0,��
2016/06/24,15:50,1.268,-,2.173,2.180,1.873,0.630,1.182,1.021,��쓌,7.1,��
2016/06/24,16:00,1.270,-,2.171,2.179,1.871,0.629,1.180,1.024,��쓌,7.0,��
2016/06/24,16:10,1.266,-,2.170,2.177,1.876,0.631,1.181,1.024,��쓌,7.9,��
2016/06/24,16:20,1.271,-,2.174,2.180,1.878,0.630,1.180,1.024,��쓌,8.7,��
2016/06/24,16:30,1.270,-,2.170,2.180,1.874,0.631,1.181,1.025,��쓌,7.2,��
2016/06/24,16:40,1.270,-,2.175,2.181,1.877,0.630,1.180,1.024,��쓌,8.0,��
2016/06/24,16:50,1.271,-,2.173,2.180,1.877,0.630,1.181,1.024,��쓌,6.5,��
2016/06/24,17:00,1.269,-,2.172,2.178,1.877,0.631,1.180,1.025,��쓌,7.1,��
2016/06/24,17:10,1.269,-,2.175,2.179,1.878,0.630,1.180,1.025,��쓌,7.0,�L
2016/06/24,17:20,1.270,-,2.172,2.180,1.875,0.631,1.180,1.025,��,5.9,�L
2016/06/24,17:30,1.270,-,2.172,2.181,1.872,0.633,1.180,1.023,��쓌,7.3,��
2016/06/24,17:40,1.270,-,2.172,2.179,1.873,0.635,1.179,1.023,��쓌,7.9,��
2016/06/24,17:50,1.271,-,2.172,2.179,1.873,0.636,1.179,1.025,��쓌,8.7,��
2016/06/24,18:00,1.272,-,2.172,2.179,1.876,0.634,1.179,1.023,��쓌,8.4,��
2016/06/24,18:10,1.270,-,2.174,2.180,1.872,0.633,1.180,1.023,��쓌,8.2,��
2016/06/24,18:20,1.271,-,2.174,2.182,1.870,0.634,1.180,1.025,��쓌,8.2,��
2016/06/24,18:30,1.272,-,2.170,2.181,1.871,0.633,1.177,1.022,��쓌,8.6,�L
2016/06/24,18:40,1.270,-,2.168,2.181,1.874,0.633,1.177,1.023,��쓌,9.1,��
2016/06/24,18:50,1.272,-,2.171,2.181,1.871,0.631,1.180,1.025,��쓌,8.1,�L
2016/06/24,19:00,1.271,-,2.170,2.177,1.870,0.632,1.179,1.027,��쓌,8.8,��
2016/06/24,19:10,1.271,-,2.170,2.180,1.870,0.632,1.178,1.026,��쓌,8.7,��
2016/06/24,19:20,1.270,-,2.169,2.180,1.869,0.631,1.180,1.026,��,7.7,��
2016/06/24,19:30,1.271,-,2.167,2.177,1.866,0.631,1.178,1.024,��,7.5,��
2016/06/24,19:40,1.270,-,2.168,2.178,1.866,0.635,1.180,1.025,��,7.1,��
2016/06/24,19:50,1.273,-,2.168,2.175,1.870,0.634,1.178,1.026,��,7.6,��
2016/06/24,20:00,1.269,-,2.168,2.175,1.870,0.634,1.178,1.026,��쓌,7.1,��
2016/06/24,20:10,1.269,-,2.168,2.177,1.870,0.632,1.180,1.024,��쓌,7.2,��
2016/06/24,20:20,1.271,-,2.167,2.176,1.867,0.633,1.181,1.027,��,6.8,��
2016/06/24,20:30,1.270,-,2.169,2.178,1.870,0.633,1.181,1.026,��,6.5,��
2016/06/24,20:40,1.269,-,2.169,2.175,1.870,0.632,1.180,1.026,��,6.5,��
2016/06/24,20:50,1.270,-,2.169,2.178,1.868,0.635,1.180,1.026,��쓌,7.3,��
2016/06/24,21:00,1.268,-,2.166,2.178,1.869,0.631,1.179,1.026,��,7.6,�L
2016/06/24,21:10,1.273,-,2.167,2.176,1.866,0.632,1.179,1.025,��,7.1,�L
2016/06/24,21:20,1.269,-,2.167,2.175,1.864,0.633,1.179,1.024,��,7.5,��
2016/06/24,21:30,1.271,-,2.164,2.174,1.863,0.633,1.178,1.025,��,6.8,�L
2016/06/24,21:40,1.270,-,2.160,2.175,1.861,0.634,1.176,1.023,��,7.0,�L
2016/06/24,21:50,1.271,-,2.161,2.176,1.862,0.631,1.176,1.022,��,6.5,�L
2016/06/24,22:00,1.270,-,2.159,2.172,1.860,0.634,1.176,1.022,��,6.4,�L
2016/06/24,22:10,1.267,-,2.157,2.171,1.856,0.633,1.176,1.019,��,6.1,�L
2016/06/24,22:20,1.270,-,2.153,2.172,1.851,0.632,1.175,1.022,��,5.5,�L
2016/06/24,22:30,1.267,-,2.153,2.168,1.854,0.633,1.176,1.020,��,6.4,�L
2016/06/24,22:40,1.266,-,2.146,2.167,1.852,0.631,1.174,1.021,��,6.0,�L
2016/06/24,22:50,1.264,-,2.143,2.165,1.849,0.631,1.172,1.019,��,5.7,�L
2016/06/24,23:00,1.261,-,2.141,2.162,1.840,0.633,1.172,1.019,��,5.0,�L
2016/06/24,23:10,1.260,-,2.132,2.156,1.836,0.631,1.171,1.018,��,4.4,�L
2016/06/24,23:20,1.252,-,2.120,2.150,1.828,0.631,1.166,1.017,��,4.9,�L
2016/06/24,23:30,1.250,-,2.123,2.142,1.826,0.633,1.166,1.015,��,6.4,�L
2016/06/24,23:40,1.248,-,2.118,2.140,1.823,0.629,1.167,1.015,��,6.9,�L
2016/06/24,23:50,1.248,-,2.114,2.136,1.822,0.631,1.164,1.017,��쓌,7.3,�L
